GW7044 Weather Reports


time (UTC)temp
C
wind
direction
speed
KPH
gust
KPH
rain 1hr
cm
rain 24hr
cm
rain mn
cm
humidity
%
barometer
mb
20260507151035 13 200 12.9 22.5 0.00 0.00 0.00 47 1005.3
20260507150524 13 207 9.7 17.7 0.00 0.00 0.00 52 1005.3
20260507150113 13 204 6.4 14.5 0.00 0.00 0.00 52 1005.4
20260507145610 13 178 6.4 14.5 0.00 0.00 0.00 51 1005.4
20260507145047 12 201 8.0 17.7 0.00 0.00 0.00 54 1005.4
20260507144606 12 201 8.0 12.9 0.00 0.00 0.00 54 1005.4
20260507144032 12 203 8.0 20.9 0.00 0.00 0.00 54 1005.3
20260507143525 12 208 8.0 20.9 0.00 0.00 0.00 54 1005.6
20260507143133 12 208 6.4 17.7 0.00 0.00 0.00 55 1005.5
20260507142600 12 202 4.8 11.3 0.00 0.00 0.00 56 1005.4
20260507142052 12 195 4.8 14.5 0.00 0.00 0.00 58 1005.6
20260507141610 12 211 4.8 12.9 0.00 0.00 0.00 55 1005.6
20260507141036 12 205 6.4 16.1 0.00 0.00 0.00 58 1005.6
20260507140526 11 190 9.7 16.1 0.00 0.00 0.00 60 1005.7
20260507140115 11 207 8.0 17.7 0.00 0.00 0.00 62 1005.6
20260507135606 11 200 9.7 20.9 0.00 0.00 0.00 63 1005.5
20260507135100 11 210 11.3 20.9 0.00 0.00 0.00 64 1005.5
20260507134545 11 184 8.0 14.5 0.00 0.00 0.00 67 1005.6
20260507134053 11 222 3.2 8.0 0.00 0.00 0.00 72 1005.6
20260507133523 11 210 6.4 14.5 0.00 0.00 0.00 70 1005.7
20260507133116 11 200 4.8 16.1 0.00 0.00 0.00 70 1005.6
20260507132605 11 206 4.8 12.9 0.00 0.00 0.00 73 1005.4
20260507132100 10 201 8.0 16.1 0.00 0.00 0.00 73 1005.4
20260507131544 10 212 9.7 19.3 0.00 0.00 0.00 73 1005.5
20260507131031 10 203 9.7 16.1 0.00 0.00 0.00 77 1005.6
20260507130519 10 201 8.0 12.9 0.00 0.00 0.00 79 1005.6
20260507130122 10 197 8.0 17.7 0.00 0.00 0.00 80 1005.8
20260507125603 10 197 11.3 17.7 0.00 0.00 0.00 79 1005.9
20260507125059 10 204 11.3 16.1 0.00 0.00 0.00 81 1005.9
20260507124547 10 212 8.0 14.5 0.00 0.00 0.00 83 1005.8
20260507124036 10 200 9.7 16.1 0.00 0.00 0.00 84 1005.8
20260507123531 9 209 8.0 14.5 0.00 0.00 0.00 86 1005.7
20260507123022 9 201 4.8 9.7 0.00 0.00 0.00 91 1005.4
20260507122516 8 203 4.8 8.0 0.00 0.00 0.00 90 1005.4
20260507122136 8 188 3.2 6.4 0.00 0.00 0.00 91 1005.4
20260507121611 8 174 3.2 6.4 0.00 0.00 0.00 91 1005.4
20260507121059 8 202 3.2 8.0 0.00 0.00 0.00 90 1005.5
20260507120549 8 204 4.8 9.7 0.00 0.00 0.00 90 1005.6
20260507120044 8 202 4.8 8.0 0.00 0.00 0.00 90 1005.5
20260507115556 8 195 3.2 8.0 0.00 0.00 0.00 90 1005.5
20260507115040 8 204 6.4 12.9 0.00 0.00 0.00 91 1005.5
20260507114633 8 209 8.0 12.9 0.00 0.00 0.00 91 1005.4
20260507114108 8 188 3.2 6.4 0.00 0.00 0.00 92 1005.3
20260507113558 8 202 4.8 12.9 0.00 0.00 0.00 92 1005.3
20260507113044 8 207 6.4 9.7 0.00 0.00 0.00 93 1005.2
20260507112540 8 210 4.8 8.0 0.00 0.00 0.00 94 1005.3
20260507112026 8 198 3.2 6.4 0.00 0.00 0.00 94 1005.1
20260507111619 8 196 3.2 6.4 0.00 0.00 0.00 94 1005.0
20260507111108 8 190 1.6 6.4 0.00 0.00 0.00 94 1004.8
20260507110619 8 212 4.8 8.0 0.00 0.00 0.00 94 1005.1
20260507110048 8 194 3.2 6.4 0.00 0.00 0.00 94 1005.1
20260507105543 8 210 3.2 6.4 0.00 0.00 0.00 94 1004.9
20260507105056 8 197 3.2 6.4 0.00 0.00 0.00 94 1005.0
20260507104531 8 204 4.8 9.7 0.00 0.00 0.00 95 1005.2
20260507104021 8 197 3.2 6.4 0.00 0.00 0.00 95 1005.1
20260507103516 8 182 3.2 6.4 0.00 0.00 0.00 95 1004.8
20260507103112 8 201 1.6 8.0 0.00 0.00 0.00 95 1004.7
20260507102600 8 192 1.6 6.4 0.00 0.00 0.00 95 1004.5
20260507102109 8 188 3.2 8.0 0.00 0.00 0.00 96 1004.7
20260507101548 8 205 4.8 8.0 0.00 0.00 0.00 96 1004.5
20260507101036 8 155 1.6 8.0 0.00 0.00 0.00 96 1004.1
20260507100526 8 184 3.2 8.0 0.00 0.00 0.00 96 1004.0
20260507100017 8 184 3.2 6.4 0.00 0.00 0.00 96 1004.1
20260507095613 8 193 4.8 8.0 0.00 0.00 0.00 96 1004.4
20260507095107 8 190 1.6 8.0 0.00 0.00 0.00 96 1004.1
20260507094558 8 199 1.6 6.4 0.00 0.00 0.00 96 1004.2
20260507094051 8 201 3.2 6.4 0.00 0.00 0.00 96 1004.4
20260507093536 9 194 3.2 6.4 0.00 0.00 0.00 96 1004.5
20260507093027 9 186 3.2 6.4 0.00 0.00 0.00 96 1004.4
20260507092517 9 187 3.2 6.4 0.00 0.00 0.00 96 1004.2
20260507092107 9 118 1.6 6.4 0.00 0.00 0.00 96 1004.1
20260507091604 9 197 4.8 8.0 0.00 0.00 0.00 96 1004.3
20260507091112 9 196 4.8 8.0 0.00 0.00 0.00 96 1004.2
20260507090600 9 148 3.2 9.7 0.00 0.00 0.00 96 1003.9
20260507090028 9 191 3.2 9.7 0.00 0.00 0.00 96 1004.0
20260507085524 9 67 4.8 9.7 0.00 0.00 0.00 96 1004.0
20260507085127 9 211 4.8 8.0 0.00 0.00 0.00 96 1004.2
20260507084556 9 194 3.2 9.7 0.00 0.00 0.00 96 1004.1
20260507084048 9 186 4.8 11.3 0.00 0.00 0.00 96 1004.0
20260507083537 9 195 4.8 16.1 0.00 0.00 0.00 96 1003.9
20260507083028 9 205 4.8 16.1 0.00 0.00 0.00 96 1003.7
20260507082639 9 204 4.8 8.0 0.00 0.00 0.00 96 1003.7
20260507082109 9 197 6.4 12.9 0.00 0.00 0.00 96 1003.9
20260507081734 9 213 4.8 14.5 0.00 0.00 0.00 96 1004.0
20260507081051 9 203 4.8 9.7 0.00 0.00 0.00 95 1004.1
20260507080534 9 205 6.4 9.7 0.00 0.00 0.00 95 1003.8
20260507080024 9 201 4.8 8.0 0.00 0.00 0.00 95 1004.0
20260507075520 9 199 6.4 12.9 0.00 0.00 0.00 95 1004.2
20260507075105 10 197 8.0 12.9 0.00 0.00 0.00 95 1004.1
20260507074601 10 210 8.0 12.9 0.00 0.00 0.00 95 1004.1
20260507074044 10 207 4.8 9.7 0.00 0.00 0.00 95 1003.8
20260507073532 10 202 4.8 9.7 0.00 0.00 0.00 95 1004.1
20260507073028 10 206 4.8 14.5 0.00 0.00 0.00 95 1004.2
20260507072614 10 203 6.4 11.3 0.00 0.00 0.00 95 1004.4
20260507072131 10 179 4.8 8.0 0.00 0.00 0.00 94 1004.1
20260507071604 10 213 3.2 8.0 0.00 0.00 0.00 94 1004.4
20260507071048 10 169 4.8 8.0 0.00 0.00 0.00 94 1004.7
20260507070540 10 163 3.2 11.3 0.00 0.00 0.00 94 1004.4
20260507070027 10 180 4.8 9.7 0.00 0.00 0.00 93 1004.3
20260507065556 10 184 4.8 9.7 0.00 0.00 0.00 91 1003.8
20260507065108 10 181 4.8 11.3 0.00 0.00 0.00 91 1003.4
20260507064604 10 195 3.2 9.7 0.00 0.00 0.00 90 1003.3
20260507064049 11 208 3.2 9.7 0.00 0.00 0.00 90 1002.9
20260507063540 11 178 3.2 8.0 0.00 0.00 0.00 90 1002.9
20260507063028 11 188 4.8 9.7 0.00 0.00 0.00 89 1003.0
20260507062518 11 167 3.2 8.0 0.00 0.00 0.00 90 1003.1
20260507062108 11 196 4.8 11.3 0.00 0.00 0.00 90 1003.2
20260507061656 11 166 4.8 8.0 0.00 0.00 0.00 90 1003.4
20260507061052 11 4 3.2 8.0 0.00 0.00 0.00 90 1003.4
20260507060535 11 199 1.6 8.0 0.00 0.00 0.00 90 1003.3
20260507060028 11 186 3.2 11.3 0.00 0.00 0.00 90 1003.4
20260507055615 11 199 6.4 14.5 0.00 0.00 0.00 90 1003.4
20260507055104 11 218 4.8 11.3 0.00 0.00 0.00 90 1003.6
20260507054617 11 182 6.4 11.3 0.00 0.00 0.00 91 1003.7
20260507054044 11 186 4.8 11.3 0.00 0.00 0.00 90 1003.5
20260507053540 11 213 3.2 11.3 0.00 0.00 0.00 90 1003.5
20260507053024 11 141 4.8 11.3 0.00 0.00 0.00 90 1003.6
20260507052614 12 323 4.8 11.3 0.00 0.00 0.00 90 1003.7
20260507052108 12 188 4.8 12.9 0.00 0.00 0.00 91 1003.8
20260507051556 12 181 3.2 11.3 0.00 0.00 0.00 91 1004.0
20260507051046 12 194 6.4 14.5 0.00 0.00 0.00 91 1004.1
20260507050534 12 211 4.8 11.3 0.00 0.00 0.00 91 1004.0
20260507050029 12 201 6.4 9.7 0.00 0.00 0.00 91 1003.9
20260507045544 12 207 6.4 12.9 0.00 0.00 0.00 93 1004.0
20260507045019 12 195 3.2 6.4 0.00 0.00 0.00 93 1004.0
20260507044612 12 194 3.2 4.8 0.00 0.00 0.00 93 1004.0
20260507044108 12 174 1.6 3.2 0.00 0.00 0.00 93 1003.9
20260507043553 12 189 3.2 4.8 0.00 0.00 0.00 93 1004.0
20260507043041 12 193 3.2 4.8 0.00 0.00 0.00 93 1004.0
20260507042529 12 191 1.6 6.4 0.00 0.00 0.00 92 1003.9
20260507042017 12 202 3.2 6.4 0.00 0.00 0.00 92 1003.8
20260507041612 12 190 1.6 6.4 0.00 0.00 0.00 92 1004.0
20260507041100 12 207 3.2 6.4 0.00 0.00 0.00 92 1004.0
20260507040548 12 210 4.8 9.7 0.00 0.00 0.00 91 1004.1
20260507040036 13 199 4.8 9.7 0.00 0.00 0.00 92 1004.1
20260507035524 13 200 4.8 9.7 0.00 0.00 0.00 94 1003.9
20260507035116 13 207 8.0 14.5 0.00 0.00 0.00 97 1004.1
20260507034604 13 206 4.8 11.3 0.00 0.00 0.00 97 1004.0
20260507034043 13 210 4.8 6.4 0.00 0.00 0.00 97 1003.9
20260507033540 13 192 4.8 8.0 0.00 0.00 0.00 97 1004.0
20260507033028 13 202 4.8 8.0 0.00 0.00 0.00 97 1003.7
20260507032620 13 159 3.2 6.4 0.00 0.00 0.00 96 1003.5
20260507032108 13 132 1.6 3.2 0.00 0.00 0.00 96 1003.5
20260507031615 13 160 1.6 3.2 0.00 0.00 0.00 96 1003.6
20260507031055 13 106 1.6 4.8 0.00 0.00 0.00 97 1003.6
20260507030540 13 106 1.6 4.8 0.00 0.00 0.00 97 1003.8
20260507030028 13 141 3.2 4.8 0.00 0.00 0.00 96 1003.8
20260507025520 13 100 1.6 4.8 0.00 0.00 0.00 96 1003.7
20260507025116 13 155 0.0 3.2 0.00 0.00 0.00 96 1003.7
20260507024604 13 134 1.6 8.0 0.00 0.00 0.00 97 1003.6
20260507024042 13 175 3.2 8.0 0.00 0.00 0.00 97 1003.5
20260507023537 13 149 3.2 6.4 0.00 0.00 0.00 97 1003.6
20260507023027 13 156 1.6 9.7 0.00 0.00 0.00 97 1003.7
20260507022538 13 115 4.8 14.5 0.00 0.00 0.00 97 1003.7
20260507022119 13 159 4.8 9.7 0.00 0.00 0.00 97 1003.8
20260507021605 13 125 3.2 9.7 0.00 0.00 0.00 97 1003.8
20260507021052 13 54 3.2 8.0 0.00 0.00 0.00 97 1003.8
20260507020541 13 136 3.2 9.7 0.00 0.00 0.00 97 1003.8
20260507020031 13 128 3.2 6.4 0.00 0.00 0.00 97 1004.0
20260507015519 13 116 3.2 8.0 0.00 0.00 0.00 97 1003.8
20260507015116 13 342 3.2 6.4 0.00 0.00 0.00 97 1003.8
20260507014625 13 134 1.6 6.4 0.00 0.00 0.00 96 1003.9
20260507014115 13 140 3.2 6.4 0.00 0.00 0.00 97 1003.9
20260507013548 13 130 3.2 8.0 0.00 0.00 0.00 97 1003.8
20260507013055 13 109 3.2 9.7 0.00 0.00 0.00 97 1003.5
20260507012526 13 92 1.6 11.3 0.00 0.00 0.00 97 1003.6
20260507012020 13 111 4.8 9.7 0.00 0.00 0.00 97 1003.6
20260507011612 13 143 4.8 8.0 0.00 0.00 0.00 97 1003.5
20260507011100 13 123 3.2 9.7 0.00 0.00 0.00 97 1003.8
20260507010558 13 65 1.6 9.7 0.00 0.00 0.00 97 1003.7
20260507010104 13 78 4.8 11.3 0.00 0.00 0.00 97 1003.8
20260507005534 13 103 4.8 9.7 0.00 0.00 0.00 97 1003.7
20260507005028 13 152 1.6 6.4 0.00 0.00 0.00 97 1003.7
20260507004521 13 102 3.2 9.7 0.00 0.00 0.00 97 1003.9
20260507004136 13 154 3.2 9.7 0.00 0.00 0.00 97 1004.0
20260507003609 13 130 4.8 12.9 0.00 0.00 0.00 97 1004.0
20260507003101 13 160 1.6 6.4 0.00 0.00 0.00 97 1004.1
20260507002617 13 82 3.2 11.3 0.00 0.00 0.00 97 1003.9
20260507002049 13 159 4.8 8.0 0.00 0.00 0.00 97 1003.8
20260507001537 13 122 1.6 6.4 0.00 0.00 0.00 97 1003.9
20260507001032 13 102 3.2 8.0 0.00 0.00 0.00 97 1003.8
20260507000518 13 127 3.2 9.7 0.00 0.00 0.00 97 1003.8
20260507000105 13 123 3.2 8.0 0.00 0.00 0.00 97 1003.7
20260506235604 13 140 3.2 8.0 0.00 0.00 0.00 97 1003.7
20260506235055 13 128 3.2 14.5 0.00 0.00 0.00 96 1003.6
20260506234650 13 86 3.2 8.0 0.00 0.00 0.00 96 1003.7
20260506234044 13 151 3.2 8.0 0.00 0.00 0.00 96 1003.7
20260506233531 13 93 1.6 9.7 0.00 0.00 0.00 96 1003.6
20260506233022 13 70 6.4 12.9 0.00 0.00 0.00 96 1003.5
20260506232516 13 95 4.8 19.3 0.00 0.00 0.00 96 1003.7
20260506232108 13 88 4.8 9.7 0.00 0.00 0.00 96 1003.5
20260506231556 13 124 4.8 9.7 0.00 0.00 0.00 96 1003.6
20260506231103 13 132 4.8 9.7 0.00 0.00 0.00 96 1003.6
20260506230534 13 105 3.2 8.0 0.00 0.00 0.00 96 1003.6
20260506230029 13 139 3.2 11.3 0.00 0.00 0.00 96 1003.5
20260506225522 13 134 4.8 9.7 0.00 0.00 0.00 96 1003.3
20260506225136 13 112 6.4 14.5 0.00 0.00 0.00 95 1003.3
20260506224608 13 61 4.8 12.9 0.00 0.00 0.00 95 1003.4
20260506224059 13 148 4.8 14.5 0.00 0.00 0.00 95 1003.3
20260506223548 13 70 3.2 9.7 0.00 0.00 0.00 95 1003.4
20260506223102 13 131 4.8 9.7 0.00 0.00 0.00 95 1003.5
20260506222540 13 57 4.8 16.1 0.00 0.00 0.00 95 1003.4
20260506222028 13 136 3.2 16.1 0.00 0.00 0.00 95 1003.2
20260506221620 13 136 4.8 9.7 0.00 0.00 0.00 95 1003.3
20260506221059 13 142 3.2 9.7 0.00 0.00 0.00 94 1003.3
20260506220554 13 140 3.2 8.0 0.00 0.00 0.00 94 1003.3
20260506220045 13 193 3.2 11.3 0.00 0.00 0.00 94 1003.2
20260506215525 13 142 4.8 11.3 0.00 0.00 0.00 94 1003.3
20260506215019 13 107 6.4 22.5 0.00 0.00 0.00 94 1003.3
20260506214612 13 144 6.4 22.5 0.00 0.00 0.00 94 1003.2
20260506214105 13 66 8.0 20.9 0.00 0.00 0.00 94 1003.3
20260506213553 13 110 4.8 14.5 0.00 0.00 0.00 94 1003.4
20260506213106 13 125 4.8 11.3 0.00 0.00 0.00 94 1003.5
20260506212540 13 134 8.0 17.7 0.00 0.00 0.00 94 1003.5
20260506212032 13 146 6.4 12.9 0.00 0.00 0.00 94 1003.6
20260506211526 13 76 4.8 17.7 0.00 0.00 0.00 94 1003.7
20260506211022 13 112 6.4 14.5 0.00 0.00 0.00 93 1003.8
20260506210516 13 45 6.4 17.7 0.00 0.00 0.00 93 1003.9
20260506210037 14 146 3.2 17.7 0.00 0.00 0.00 93 1003.9
20260506205601 14 118 3.2 12.9 0.00 0.00 0.00 92 1003.8
20260506205052 14 111 4.8 16.1 0.00 0.00 0.00 92 1003.8
20260506204600 14 80 4.8 9.7 0.00 0.00 0.00 93 1003.9
20260506204039 14 69 6.4 16.1 0.00 0.00 0.00 92 1003.9
20260506203524 14 128 4.8 11.3 0.00 0.00 0.00 92 1003.9
20260506203112 14 81 4.8 11.3 0.00 0.00 0.00 92 1003.9
20260506202605 14 110 4.8 11.3 0.00 0.00 0.00 92 1004.1
20260506202132 14 72 4.8 9.7 0.00 0.00 0.00 92 1004.0
20260506201608 14 177 3.2 14.5 0.00 0.00 0.00 92 1004.1
20260506201032 14 159 4.8 9.7 0.00 0.00 0.00 92 1004.2
20260506200521 14 111 4.8 14.5 0.00 0.00 0.00 92 1004.1
20260506200108 14 93 8.0 17.7 0.00 0.00 0.00 92 1004.2
20260506195604 14 105 3.2 9.7 0.00 0.00 0.00 92 1004.2
20260506195052 14 138 8.0 17.7 0.00 0.00 0.00 93 1004.3
20260506194540 14 89 4.8 12.9 0.00 0.00 0.00 92 1004.5
20260506194022 14 150 3.2 14.5 0.00 0.00 0.00 92 1004.5
20260506193620 14 187 4.8 16.1 0.00 0.00 0.00 93 1004.7
20260506193112 14 63 4.8 9.7 0.00 0.00 0.00 93 1004.5
20260506192600 14 77 6.4 12.9 0.00 0.00 0.00 93 1004.5
20260506192109 14 143 4.8 14.5 0.00 0.00 0.00 93 1004.6
20260506191543 14 136 3.2 11.3 0.00 0.00 0.00 93 1004.6
20260506191027 14 148 4.8 12.9 0.00 0.00 0.00 92 1004.6
20260506190519 13 56 6.4 17.7 0.00 0.00 0.00 92 1004.7
20260506190115 13 125 3.2 14.5 0.00 0.00 0.00 92 1004.7
20260506185613 14 115 6.4 9.7 0.00 0.00 0.00 91 1004.9
20260506185119 14 56 8.0 16.1 0.00 0.00 0.00 91 1004.8
20260506184548 14 63 6.4 12.9 0.00 0.00 0.00 90 1004.6
20260506184037 14 81 3.2 8.0 0.00 0.00 0.00 89 1004.6
20260506183553 14 68 4.8 11.3 0.00 0.00 0.00 88 1004.9
20260506183029 14 85 3.2 17.7 0.00 0.00 0.00 88 1004.9
20260506182521 14 80 9.7 17.7 0.00 0.00 0.00 88 1005.1
20260506182116 14 75 4.8 17.7 0.00 0.00 0.00 87 1005.4
20260506181611 15 121 4.8 16.1 0.00 0.00 0.00 86 1005.5
20260506181103 15 96 4.8 16.1 0.00 0.00 0.00 85 1005.8
20260506180558 15 236 4.8 14.5 0.00 0.00 0.00 83 1005.8
20260506180049 15 89 3.2 9.7 0.00 0.00 0.00 81 1005.7
20260506175623 15 116 4.8 19.3 0.00 0.00 0.00 80 1005.6
20260506175034 15 102 6.4 14.5 0.00 0.00 0.00 80 1005.8
20260506174533 16 114 6.4 14.5 0.00 0.00 0.00 79 1005.9
20260506174024 16 90 8.0 11.3 0.00 0.00 0.00 78 1005.8
20260506173615 16 30 4.8 16.1 0.00 0.00 0.00 78 1005.9
20260506173129 16 188 6.4 16.1 0.00 0.00 0.00 76 1006.0
20260506172556 16 51 8.0 14.5 0.00 0.00 0.00 76 1006.0
20260506172045 16 91 4.8 12.9 0.00 0.00 0.00 77 1006.1
20260506171552 16 233 6.4 17.7 0.00 0.00 0.00 76 1006.1
20260506171021 17 138 6.4 17.7 0.00 0.00 0.00 74 1006.1
20260506170516 17 112 6.4 17.7 0.00 0.00 0.00 73 1006.1
20260506170129 17 94 8.0 12.9 0.00 0.00 0.00 73 1006.2
20260506165604 17 130 8.0 17.7 0.00 0.00 0.00 73 1006.1
20260506165046 17 132 8.0 17.7 0.00 0.00 0.00 72 1006.1
20260506164540 17 115 9.7 24.1 0.00 0.00 0.00 71 1006.0
20260506164041 18 108 6.4 16.1 0.00 0.00 0.00 71 1006.0
20260506163524 18 143 4.8 16.1 0.00 0.00 0.00 71 1006.0
20260506163117 17 159 6.4 24.1 0.00 0.00 0.00 72 1006.1
20260506162605 18 57 11.3 24.1 0.00 0.00 0.00 70 1006.1
20260506162052 18 131 8.0 17.7 0.00 0.00 0.00 71 1006.4
20260506161541 18 126 9.7 24.1 0.00 0.00 0.00 71 1006.4
20260506161037 17 114 6.4 17.7 0.00 0.00 0.00 72 1006.4
20260506160522 17 97 8.0 24.1 0.00 0.00 0.00 71 1006.6
20260506160112 18 110 6.4 22.5 0.00 0.00 0.00 70 1006.5
20260506155605 18 142 4.8 16.1 0.00 0.00 0.00 70 1006.6
20260506155056 18 84 1.6 16.1 0.00 0.00 0.00 70 1006.6
20260506154548 18 109 8.0 19.3 0.00 0.00 0.00 69 1006.6
20260506154053 18 156 9.7 19.3 0.00 0.00 0.00 68 1006.5
20260506153521 18 118 8.0 19.3 0.00 0.00 0.00 69 1006.5
20260506153118 18 86 8.0 20.9 0.00 0.00 0.00 67 1006.5
20260506152606 19 206 4.8 16.1 0.00 0.00 0.00 67 1006.5
20260506152054 19 134 6.4 16.1 0.00 0.00 0.00 67 1006.6